Starlink 32311

operational
NORAD ID: 62114 Int'l Des: 2024-222 Owner: SPXS Country: US Constellation: starlink
LEOCIRCULAR

Starlink 32311について

説明を読み込み中...

リアルタイム位置

3D地球を読み込み中...

次回通過

高度履歴

Altitude vs Time

uPlot chart will show altitude changes over time

軌道要素

1 62114U 24222A 25351.70487679 .00016992 00000-0 62473-3 0 9992
2 62114 42.9968 224.2129 0000397 250.9218 109.1590 15.27625069 60545
Epoch: Dec 17, 2025 • Age: 15 hours

現在のステータス

高度 494.0 km
速度 7.62 km/s
衛星直下点 -38.52°S, 110.11°W
打ち上げ日 Nov 27, 2024
運用期間 1 years
タイプ internet

技術仕様

分類 Payload
質量 730.00 kg
乾燥質量 700.00 kg
総質量 730.00 kg
長さ 0.30 m
直径 4.10 m
スパン 29.00 m
形状 Box + pan
製造者 SPXS
バスタイプ Starlink V2M
フェーズステータス In Orbit
所有者/国 SPXS/US

大規模コンステレーション

Loading constellations...